This is the latest recevied weather packets stored in our database for station/object KC5DAQ-27. If no packets are shown the sender has not sent any weather packets the latest 10 day(s).
| Time | Temp. | Humidity | Pressure | Rain* | Wind** | Luminosity | Snow |
|---|---|---|---|---|---|---|---|
| 1778336981 | 23.89° C | 97% | 1001.4 hPa | 0 mm | - | 216 W/m² | - |
| 1778336921 | 23.89° C | 97% | 1001.5 hPa | 0 mm | - | 216 W/m² | - |
| 1778336861 | 23.89° C | 97% | 1001.3 hPa | 0 mm | - | 216 W/m² | - |
| 1778336800 | 23.89° C | 97% | 1001.4 hPa | 0 mm | - | 216 W/m² | - |
| 1778336740 | 23.89° C | 97% | 1001.3 hPa | 0 mm | - | 216 W/m² | - |
| 1778336679 | 23.89° C | 97% | 1001.3 hPa | 0 mm | - | 215 W/m² | - |
| 1778336619 | 23.89° C | 97% | 1001.3 hPa | 0 mm | - | 213 W/m² | - |
| 1778336560 | 23.89° C | 97% | 1001.2 hPa | 0 mm | - | 208 W/m² | - |
| 1778336501 | 23.89° C | 97% | 1001.2 hPa | 0 mm | - | 202 W/m² | - |
| 1778336439 | 23.89° C | 97% | 1001.2 hPa | 0 mm | - | 195 W/m² | - |
| 1778336381 | 23.89° C | 97% | 1001.2 hPa | 0 mm | - | 186 W/m² | - |
| 1778336319 | 23.89° C | 97% | 1001.3 hPa | 0 mm | - | 176 W/m² | - |
| 1778336261 | 23.89° C | 97% | 1001.3 hPa | 0 mm | - | 162 W/m² | - |
| 1778336200 | 23.89° C | 97% | 1001.4 hPa | 0 mm | - | 141 W/m² | - |
| 1778336140 | 23.89° C | 97% | 1001.3 hPa | 0 mm | - | 139 W/m² | - |
| 1778336079 | 23.89° C | 97% | 1001.4 hPa | 0 mm | - | 139 W/m² | - |
| 1778336019 | 23.89° C | 98% | 1001.3 hPa | 0 mm | - | 135 W/m² | - |
| 1778335960 | 23.89° C | 98% | 1001.3 hPa | 0 mm | - | 128 W/m² | - |
| 1778335899 | 23.89° C | 97% | 1001.3 hPa | 0 mm | - | 120 W/m² | - |
| 1778335839 | 23.89° C | 97% | 1001.3 hPa | 0 mm | - | 106 W/m² | - |
| 1778335781 | 23.89° C | 97% | 1001.4 hPa | 0 mm | - | 98 W/m² | - |
| 1778335720 | 23.89° C | 97% | 1001.4 hPa | 0 mm | - | 93 W/m² | - |
| 1778335660 | 23.89° C | 97% | 1001.4 hPa | 0 mm | - | 86 W/m² | - |
| 1778335599 | 23.89° C | 97% | 1001.4 hPa | 0 mm | - | 84 W/m² | - |
| 1778335541 | 23.89° C | 97% | 1001.4 hPa | 0 mm | - | 83 W/m² | - |
* Rain latest hour (hover to see other rain measurements)
** Current wind speed in m/s (hover to see current wind gust speed)